Location: Newark
(49.2191°N, 12.6671°E)
Time: 13:38:18
(UTC+00:00)

SR - All Passes

Search period start: 28 January 2020 00:00
Search period end: 07 February 2020 00:00
Orbit: 574 x 882 km, 66.7° (Epoch: 27 January)

Date Brightness Start Highest point End Pass type
(mag) Time Alt. Az. Time Alt. Az. Time Alt. Az.
28 Jan - 00:11:06 10° NW 00:14:42 16° NNW 00:18:15 10° NNE night (unlit)
28 Jan - 01:56:09 10° NNW 01:59:15 14° N 02:02:16 10° NE visible
28 Jan - 03:38:25 10° NNW 03:43:20 28° NE 03:47:58 10° E visible
28 Jan - 05:20:26 10° NW 05:26:05 77° WSW 05:31:13 10° SSE visible
28 Jan - 07:04:39 10° WNW 07:07:07 13° WSW 07:09:29 10° SW daylight
28 Jan - 19:53:42 10° S 19:58:56 35° ESE 20:04:14 10° NE night (unlit)
28 Jan - 21:35:05 10° SW 21:40:54 56° NW 21:46:43 10° NNE night (unlit)
28 Jan - 23:19:58 10° WNW 23:24:17 20° NNW 23:28:32 10° NNE night (unlit)
29 Jan - 01:05:52 10° NNW 01:08:42 14° N 01:11:30 10° NNE visible
29 Jan - 02:48:48 10° NNW 02:53:05 21° NNE 02:57:10 10° ENE visible
29 Jan - 04:30:43 10° NNW 04:36:22 64° NE 04:41:30 10° SE visible
29 Jan - 06:13:34 10° NW 06:17:58 25° WSW 06:22:05 10° SSW visible
29 Jan - 19:05:33 10° SSE 19:09:38 20° ESE 19:13:48 10° ENE night (unlit)
29 Jan - 20:45:10 10° SW 20:51:05 88° WNW 20:57:03 10° NE night (unlit)
29 Jan - 22:29:02 10° W 22:34:00 27° NNW 22:38:55 10° NNE night (unlit)
30 Jan - 00:15:06 10° NW 00:18:10 14° N 00:21:10 10° NNE night (unlit)
30 Jan - 01:59:06 10° NNW 02:02:42 16° NNE 02:06:10 10° ENE visible
30 Jan - 03:41:05 10° NNW 03:46:26 40° NE 03:51:22 10° ESE visible
30 Jan - 05:23:22 10° NW 05:28:39 45° WSW 05:33:28 10° S visible
30 Jan - 18:19:39 10° ESE 18:20:32 10° E 18:21:25 10° E night (unlit)
30 Jan - 19:55:44 10° SSW 20:01:27 57° ESE 20:07:15 10° NE night (unlit)
30 Jan - 21:38:23 10° WSW 21:43:53 38° NW 21:49:21 10° NNE night (unlit)
30 Jan - 23:24:01 10° NW 23:27:40 16° NNW 23:31:16 10° NNE night (unlit)
31 Jan - 01:09:10 10° NNW 01:12:12 14° N 01:15:10 10° NE visible
31 Jan - 02:51:29 10° NNW 02:56:20 27° NNE 03:00:52 10° E visible
31 Jan - 04:33:29 10° NW 04:39:07 80° WSW 04:44:14 10° SSE visible
31 Jan - 06:17:31 10° WNW 06:20:11 14° WSW 06:22:46 10° SW daylight
31 Jan - 19:06:50 10° S 19:12:00 33° ESE 19:17:14 10° NE visible
31 Jan - 20:48:05 10° SW 20:53:55 58° NW 20:59:46 10° NNE night (unlit)
31 Jan - 22:32:54 10° WNW 22:37:16 21° NNW 22:41:34 10° NNE night (unlit)
01 Feb - 00:18:51 10° NNW 00:21:40 13° N 00:24:26 10° NNE night (unlit)
01 Feb - 02:01:52 10° NNW 02:06:03 20° NNE 02:10:03 10° ENE visible
01 Feb - 03:43:46 10° NNW 03:49:22 61° NE 03:54:29 10° SE visible
01 Feb - 05:26:34 10° NW 05:31:02 26° WSW 05:35:12 10° SSW visible
01 Feb - 18:18:46 10° SSE 18:22:44 19° ESE 18:26:43 10° ENE visible
01 Feb - 19:58:13 10° SSW 20:04:08 89° ESE 20:10:05 10° NE visible
01 Feb - 21:41:59 10° W 21:47:00 28° NW 21:51:58 10° NNE night (unlit)
01 Feb - 23:28:02 10° NW 23:31:07 14° N 23:34:09 10° NNE night (unlit)
02 Feb - 01:12:10 10° NNW 01:15:39 16° NNE 01:19:02 10° NE visible
02 Feb - 02:54:09 10° NNW 02:59:26 38° NE 03:04:19 10° ESE visible
02 Feb - 04:36:24 10° NW 04:41:41 47° WSW 04:46:32 10° S visible
02 Feb - 19:08:48 10° SSW 19:14:31 54° ESE 19:20:16 10° NE visible
02 Feb - 20:51:20 10° WSW 20:56:53 39° NW 21:02:23 10° NNE visible
02 Feb - 22:36:56 10° WNW 22:40:38 17° NNW 22:44:16 10° NNE night (unlit)
03 Feb - 00:22:12 10° NNW 00:25:10 14° N 00:28:02 10° NE night (unlit)
03 Feb - 02:04:33 10° NNW 02:09:18 26° NNE 02:13:45 10° E visible
03 Feb - 03:46:32 10° NW 03:52:08 84° SW 03:57:14 10° SSE visible
03 Feb - 05:30:24 10° WNW 05:33:16 15° WSW 05:36:01 10° SW visible
03 Feb - 18:19:58 10° S 18:25:04 31° ESE 18:30:13 10° NE visible
03 Feb - 20:01:05 10° SW 20:06:57 60° NW 20:12:47 10° NNE visible
03 Feb - 21:45:50 10° WNW 21:50:15 21° NNW 21:54:35 10° NNE night (unlit)
03 Feb - 23:31:49 10° NNW 23:34:37 13° N 23:37:21 10° NNE night (unlit)
04 Feb - 01:14:56 10° NNW 01:19:01 20° NNE 01:22:55 10° ENE night (unlit)
04 Feb - 02:56:49 10° NNW 03:02:23 58° NE 03:07:27 10° SE visible
04 Feb - 04:39:33 10° NW 04:44:06 27° WSW 04:48:19 10° SSW visible
04 Feb - 17:32:00 10° SE 17:35:49 18° ESE 17:39:39 10° ENE visible
04 Feb - 19:11:14 10° SSW 19:17:10 86° ESE 19:23:06 10° NE visible
04 Feb - 20:54:55 10° W 20:59:59 28° NW 21:05:00 10° NNE visible
04 Feb - 22:40:58 10° NW 22:44:05 14° N 22:47:07 10° NNE night (unlit)
05 Feb - 00:25:12 10° NNW 00:28:37 16° NNE 00:31:55 10° NE night (unlit)
05 Feb - 02:07:12 10° NNW 02:12:25 37° NE 02:17:14 10° ESE visible
05 Feb - 03:49:25 10° NW 03:54:44 50° WSW 03:59:35 10° S visible
05 Feb - 18:21:52 10° SSW 18:27:34 51° ESE 18:33:17 10° NE visible
05 Feb - 20:04:18 10° WSW 20:09:54 41° NW 20:15:26 10° NNE visible
05 Feb - 21:49:51 10° WNW 21:53:36 17° NNW 21:57:17 10° NNE visible
05 Feb - 23:35:14 10° NNW 23:38:07 14° N 23:40:55 10° NE night (unlit)
06 Feb - 01:17:37 10° NNW 01:22:17 25° NNE 01:26:40 10° E night (unlit)
06 Feb - 02:59:34 10° NW 03:05:10 88° SW 03:10:14 10° SSE visible
06 Feb - 04:43:18 10° WNW 04:46:21 15° WSW 04:49:15 10° SW visible
06 Feb - 17:33:07 10° S 17:38:09 30° ESE 17:43:12 10° NE visible
06 Feb - 19:14:05 10° SW 19:19:58 63° NW 19:25:49 10° NNE visible
06 Feb - 20:58:45 10° WNW 21:03:13 21° NNW 21:07:37 10° NNE visible
06 Feb - 22:44:48 10° NNW 22:47:34 13° N 22:50:16 10° NNE night (unlit)
